Location: Saline Valley Store (historical)
(37.6734°N, 88.4989°W)
Time: 17:17:39
(UTC+00:00)

Daily predictions for brighter satellites

Satellite Brightness Start Highest point End
(mag) Time Altitude Azimuth Time Altitude Azimuth Time Altitude Azimuth
ATLAS 5 CENTAUR R/B 2.7 23:40:11 10° SW 23:44:11 45° NW 23:48:36 10° NNE
SL-4 R/B 3.0 23:42:00 10° NNW 23:45:20 26° NNE 23:48:27 10° E
COBE Rocket 4.0 23:40:15 10° NNE 23:45:25 70° E 23:50:27 10° S
Cosmos 1271 Rocket 3.3 23:44:05 10° N 23:47:49 38° ENE 23:51:33 10° SSE
Cosmos 1758 Rocket 3.6 23:44:18 10° N 23:48:44 65° E 23:53:10 10° SSE
SMAP 4.1 23:45:16 10° S 23:49:47 52° W 23:54:20 10° NNW
Cosmos 1626 2.6 23:49:54 10° NNW 23:53:35 65° W 23:57:15 10° S
Cosmos 1726 2.8 23:53:03 10° SSE 23:56:18 31° E 23:59:33 10° NNE
